TimeMDT,TemperatureF,Dew PointF,Humidity,Sea Level PressureIn,VisibilityMPH,Wind Direction,Wind SpeedMPH,Gust SpeedMPH,PrecipitationIn,Events,Conditions,WindDirDegrees,DateUTC
12:53 AM,46.0,23.0,40,29.82,10.0,ENE,5.8,-,N/A,,Overcast,70,2013-03-16 06:53:00
1:53 AM,44.1,24.1,45,29.84,10.0,ESE,10.4,17.3,N/A,,Overcast,120,2013-03-16 07:53:00
2:53 AM,39.9,24.1,53,29.84,10.0,East,5.8,-,N/A,,Partly Cloudy,100,2013-03-16 08:53:00
3:53 AM,37.0,24.1,59,29.86,10.0,ENE,9.2,-,N/A,,Partly Cloudy,70,2013-03-16 09:53:00
4:53 AM,34.0,23.0,64,29.89,10.0,East,3.5,-,N/A,,Clear,90,2013-03-16 10:53:00
5:53 AM,33.1,23.0,66,29.93,10.0,South,4.6,-,N/A,,Clear,180,2013-03-16 11:53:00
6:53 AM,33.1,24.1,70,29.93,10.0,South,4.6,-,N/A,,Partly Cloudy,180,2013-03-16 12:53:00
7:13 AM,33.8,24.8,70,30.02,10.0,SSW,4.6,-,N/A,,Mostly Cloudy,200,2013-03-16 13:13:00
7:53 AM,35.1,25.0,67,29.93,10.0,SSW,10.4,-,N/A,,Overcast,200,2013-03-16 13:53:00
8:10 AM,35.6,24.8,65,30.01,10.0,South,10.4,-,N/A,,Overcast,190,2013-03-16 14:10:00
8:53 AM,36.0,25.0,64,29.93,10.0,SSW,12.7,-,N/A,,Overcast,200,2013-03-16 14:53:00
9:53 AM,37.9,26.1,62,29.91,10.0,SSW,18.4,24.2,N/A,,Overcast,200,2013-03-16 15:53:00
10:30 AM,39.2,26.6,61,29.98,10.0,South,19.6,27.6,N/A,,Mostly Cloudy,190,2013-03-16 16:30:00
10:38 AM,39.2,26.6,61,29.98,10.0,South,21.9,27.6,N/A,,Scattered Clouds,190,2013-03-16 16:38:00
10:53 AM,39.0,26.1,60,29.89,10.0,South,24.2,31.1,N/A,,Partly Cloudy,190,2013-03-16 16:53:00
11:53 AM,43.0,26.1,51,29.84,10.0,South,20.7,31.1,N/A,,Scattered Clouds,190,2013-03-16 17:53:00
12:53 PM,45.0,26.1,48,29.82,10.0,South,21.9,31.1,N/A,,Clear,190,2013-03-16 18:53:00
1:53 PM,45.0,26.1,48,29.82,10.0,SSW,13.8,21.9,N/A,,Mostly Cloudy,200,2013-03-16 19:53:00
2:53 PM,46.9,27.0,46,29.79,10.0,South,9.2,-,0.00,,Mostly Cloudy,190,2013-03-16 20:53:00
3:53 PM,46.0,30.0,54,29.79,10.0,South,17.3,23.0,0.00,,Scattered Clouds,190,2013-03-16 21:53:00
4:53 PM,46.0,28.0,50,29.79,10.0,South,12.7,-,N/A,,Scattered Clouds,170,2013-03-16 22:53:00
5:53 PM,46.9,27.0,46,29.78,10.0,SW,10.4,-,N/A,,Overcast,230,2013-03-16 23:53:00
6:53 PM,44.1,28.9,55,29.80,10.0,SSW,12.7,-,N/A,,Mostly Cloudy,210,2013-03-17 00:53:00
7:53 PM,41.0,28.9,62,29.81,10.0,WNW,4.6,-,N/A,,Clear,290,2013-03-17 01:53:00
8:53 PM,37.0,26.1,65,29.83,10.0,West,6.9,-,N/A,,Clear,270,2013-03-17 02:53:00
9:53 PM,36.0,19.9,52,29.85,10.0,NNW,5.8,-,N/A,,Clear,330,2013-03-17 03:53:00
10:53 PM,36.0,25.0,64,29.82,10.0,NNW,6.9,-,N/A,,Clear,340,2013-03-17 04:53:00
11:53 PM,32.0,23.0,69,29.80,10.0,West,6.9,-,N/A,,Clear,280,2013-03-17 05:53:00